Regional Weather Roundup
Issued by NWS Goodland, KS

Home | Current Version | Previous Version | Text Only | Print | Product List | Glossary Off
Versions: 1 2 3 4 5 6 7 8 9 10 11 12 13 14 15 16 17 18 19 20 21 22 23 24 25 26 27 28 29 30 31 32 33 34 35 36 37 38 39 40 41 42 43 44 45 46 47 48 49 50

240
ASUS43 KGLD 242259
RWRGLD

GOODLAND FORECAST AREA HOURLY WEATHER ROUNDUP
NATIONAL WEATHER SERVICE GOODLAND KS
500 PM MDT FRI MAR 24 2017

...OFFICIAL OBSERVATIONS...

CITY           SKY/WX    TMP DP  RH WIND       PRES   REMARKS
GOODLAND KS    LGT SNOW  38  36  92 N22G31    30.04R FOG
HILL CITY KS   CLOUDY    44  40  85 N23G30    29.97R
IMPERIAL NEB   LGT RAIN  44  38  79 N21       30.07S
MCCOOK NEB     CLOUDY    41  40  96 N15       30.02R
AKRON CO       PTSUNNY   49  33  54 NE15      30.11R
BURLINGTON CO  CLOUDY    37  36  96 N25G32    30.05S
LIMON CO       SUNNY     42  37  82 N13       30.12R
$$

...UNOFFICIAL OBSERVATIONS...

CITY           SKY/WX    TMP DP  RH WIND       PRES   REMARKS
LENORA KS        N/A     42  32  68 N12G21      N/A
NORTON KS      CLOUDY    41  36  81 N17G26    29.97S
SHARON SPRINGS   N/A     39  37  93 N21G30      N/A
TRENTON NEB      N/A     40  32  73 N12         N/A
YUMA CO        CLOUDY    43  36  75 NE15      30.11S
$$




USA.gov is the U.S. government's official web portal to all federal, state and local government web resources and services.